Content
SEND FEEDBACK

Daily
Averages
Monthly
Summary
United States of America

MERIZO, GUAM


Home > North America > United States > Guam
Elevation: 10 feet     Latitude: 13 14N     Longitude: 144 39E

WEATHER
 
SELECT A DAY
Number of Records: 356,513;   Date Range: 1/1/95 - 12/18/14
 
SHARE

PRINT THIS DATA

[ ← Previous Day ]
WEATHER ALMANAC - MAY 15, 2014
[ Next Day → ]
[ °C ]   °F
Weather ElementAverageHighLow
Temperature81.6 °F86.2 °F (11:58 am)75 °F (5:58 am)
Dewpoint73.7 °F75.2 °F (2:23 pm)72.1 °F (1:58 am)
Humidity77.2 %92 % (5:58 am)66 % (11:58 am)
Barometer29.81 in29.87 in (8:28 am)29.75 in (3:58 pm)
Wind Speed5.7 mph11.5 mph (3:58 pm)
Weather ElementAverage
Visibility10 mi
Wind DirectionENE (79.3 °)

Weather ElementTotal
Precipitation---
Cooling Degree Days15.6 (Base 65)
Growing Degree Days30.6 (Base 50)
Averaged from 30 records on May 15, 2014
WEATHER CONDITIONS BREAKOUT
WIND DIRECTION BREAKOUT
WEATHER BY HOUR - MAY 15, 2014
[ °C ]   °F
Local TimeTemperatureDewpointHumidityBarometerVisibilityWind DirectionWind SpeedGust SpeedPrecipitationEventsConditions
1:58 AM77.9 °F72.1 °F82 %29.81 in10.0 miSE (130°)1.2 mphClear
2:58 AM75.7 °F72.1 °F89 %29.78 in10.0 miCalmClear
3:58 AM75.9 °F72.1 °F88 %29.78 in10.0 miCalmClear
4:58 AM75.6 °F72.5 °F90 %29.78 in10.0 miCalmClear
5:58 AM75.0 °F72.7 °F92 %29.79 in10.0 miCalmClear
6:58 AM78.3 °F74.1 °F87 %29.81 in10.0 miNW (320°)1.2 mphClear
7:58 AM81.1 °F74.1 °F79 %29.82 in10.0 miNNE (20°)4.6 mphPartly Cloudy
8:18 AM80.6 °F73.4 °F79 %29.86 in10.0 miNNE (30°)5.8 mphMostly Cloudy
8:28 AM80.6 °F73.4 °F79 %29.87 in10.0 miNorth (10°)5.8 mphMostly Cloudy
8:33 AM82.4 °F73.4 °F74 %29.87 in10.0 miNNE (30°)6.9 mphScattered Clouds
8:58 AM83.3 °F73.4 °F72 %29.84 in10.0 miVariable5.8 mphClear
9:58 AM84.9 °F73.9 °F69 %29.83 in10.0 miNNE (20°)5.8 mphClear
10:58 AM85.1 °F72.9 °F67 %29.83 in10.0 miNE (50°)6.9 mphClear
11:58 AM86.2 °F73.4 °F66 %29.81 in10.0 miVariable6.9 mphPartly Cloudy
12:33 PM86.0 °F73.4 °F66 %29.84 in10.0 miEast (80°)9.2 mphMostly Cloudy
12:38 PM86.0 °F73.4 °F66 %29.83 in10.0 miEast (90°)8.1 mphScattered Clouds
12:58 PM86.0 °F73.6 °F66 %29.81 in10.0 miEast (90°)9.2 mphPartly Cloudy
1:58 PM85.3 °F75.0 °F71 %29.78 in10.0 miESE (110°)10.4 mphScattered Clouds
2:23 PM84.2 °F75.2 °F74 %29.80 in10.0 miESE (110°)8.1 mphMostly Cloudy
2:33 PM84.2 °F75.2 °F74 %29.80 in10.0 miESE (110°)9.2 mphMostly Cloudy
2:58 PM84.9 °F74.5 °F71 %29.76 in10.0 miESE (110°)9.2 mphPartly Cloudy
3:58 PM84.0 °F74.3 °F72 %29.75 in10.0 miESE (120°)11.5 mphClear
4:58 PM83.7 °F73.8 °F72 %29.75 in10.0 miSSE (150°)8.1 mphClear
5:58 PM82.4 °F73.9 °F75 %29.76 in10.0 miSE (140°)5.8 mphClear
6:58 PM80.8 °F73.8 °F79 %29.78 in10.0 miESE (120°)3.5 mphClear
7:58 PM79.9 °F74.3 °F83 %29.81 in10.0 miESE (110°)4.6 mphClear
8:58 PM80.1 °F73.9 °F81 %29.83 in10.0 miESE (110°)4.6 mphClear
9:58 PM79.9 °F74.5 °F83 %29.84 in10.0 miESE (110°)4.6 mphPartly Cloudy
10:58 PM79.9 °F74.7 °F84 %29.84 in10.0 miESE (120°)5.8 mphClear
11:58 PM79.3 °F75.0 °F87 %29.83 in10.0 miEast (90°)6.9 mphClear
Hourly data recorded from PGUA, located miles away from Merizo, Guam







STORIES FROM OUR PARTNERS